ROMMA est une association bénévole à but non lucratif. Votre soutien est indispensable : ADHERER à ROMMA ou FAIRE un DON

Le Versoud - (38, Isère)

Vallée du Grésivaudan (220 m)   Longitude: 05° 51' 44" E   Latitude: 45° 13' 06" N Station partenaire n°6
 

Détail journalier du     <<     >>

Température Humidité Pression Vent Dir Rafale Dir. rafale Ensol.
Heure (°C) (%) (hPa) (km/h) (km/h) (min)
01:00 8.895101800---0
02:00 8.495101800---0
03:00 8.596101800---0
04:00 7.894101802SE0
05:00 7.395101900---0
06:00 6.896101900---0
07:00 6.596101900---0
08:00 6.096101900---0
09:00 6.096102000---0
10:00 7.197101900---15
11:00 10.685101900---60
12:00 12.278101902SE60
13:00 13.866101802SE60
14:00 15.860101702SE60
15:00 16.356101606SE60
16:00 18.347101603SE60
17:00 17.951101502SE60
18:00 15.669101402SE35
19:00 13.679101505SE10
20:00 12.284101600---0
21:00 11.288101600---0
22:00 10.291101600---0
23:00 9.992101700---0
minuit 9.792101700---0

Graphique du 16-10-2019

 

Serveur OMMA